East Saint Louis, IL

11:13 PM CST on February 19, 2017 (GMT -0600)
Saint Louis Downtown

Weather History for KCPS - March, 2013

Change the Weather History Date:

Sunday, March 10, 2013

  Actual Average Record
Temperature  
Mean Temperature 52 °F -  
Max Temperature 59 °F 63 °F 86 °F (1955)
Min Temperature 46 °F 41 °F 14 °F (1948)
Degree Days  
Heating Degree Days 12    
Growing Degree Days 2 (Base 50)    
Moisture  
Dew Point 47 °F    
Average Humidity 80    
Maximum Humidity 94    
Minimum Humidity 47    
Precipitation  
Precipitation 0.66 in - - ()
Sea Level Pressure  
Sea Level Pressure 29.72 in    
Wind  
Wind Speed 8 mph (SSW)    
Max Wind Speed 13 mph    
Max Gust Speed 23 mph    
Visibility 8 miles    
Events Rain    
Averages and records for this station are not official NWS values.
T = Trace of Precipitation, MM = Missing Value Source: NWS Daily Summary

Daily Weather History Graph

Daily Weather History Graph

Search for Another Location

Airport or City:

Trip Planner

Search our weather history database for the weather conditions in past years. The results will help you decide how hot, cold, wet, or windy it might be!

Date:

Astronomy

Mar. 10, 2013 Rise Set
Actual Time 7:19 AM CDT 7:03 PM CDT
Civil Twilight 6:52 AM CDT 7:29 PM CDT
Nautical Twilight 6:21 AM CDT 8:00 PM CDT
Astronomical Twilight 5:51 AM CDT 8:31 PM CDT
Moon 6:18 AM CDT (3/10) 6:11 PM CDT (3/10)
Length of Visible Light 12h 36m
Length of Day
11h 43m
Waning Crescent, 2% of the Moon is Illuminated
Mar 10
Waning Crescent
Mar 11
New
Mar 19
First Quarter
Mar 27
Full
Apr 2
Last Quarter

Hourly Weather History & Observations

Time (CDT) Temp. Windchill Dew Point Humidity Pressure Visibility Wind Dir Wind Speed Gust Speed Precip Events Conditions
12:53 AM 57.9 °F - 39.0 °F 49% 29.81 in 10.0 mi South 8.1 mph - N/A   Mostly Cloudy
1:53 AM 57.9 °F - 37.9 °F 47% 29.78 in 10.0 mi SSE 10.4 mph - N/A   Overcast
3:53 AM 55.9 °F - 39.0 °F 53% 29.78 in 10.0 mi SSE 5.8 mph - N/A   Overcast
4:53 AM 55.0 °F - 39.9 °F 57% 29.76 in 10.0 mi SE 12.7 mph - 0.00 in   Overcast
5:53 AM 55.0 °F - 39.9 °F 57% 29.75 in 10.0 mi SE 9.2 mph - N/A   Mostly Cloudy
7:42 AM 55.4 °F - 44.6 °F 67% 29.77 in 10.0 mi South 5.8 mph - N/A   Overcast
7:53 AM 59.0 °F - 48.0 °F 67% 29.76 in 10.0 mi South 10.4 mph 16.1 mph N/A   Overcast
8:53 AM 59.0 °F - 48.9 °F 69% 29.75 in 10.0 mi SSE 8.1 mph 16.1 mph N/A   Overcast
9:53 AM 57.0 °F - 48.0 °F 72% 29.71 in 7.0 mi SE 9.2 mph - 0.01 in   Overcast
10:53 AM 59.0 °F - 48.9 °F 69% 29.73 in 10.0 mi SSE 11.5 mph 19.6 mph N/A   Overcast
11:27 AM 57.2 °F - 51.8 °F 82% 29.70 in 2.5 mi SSE 10.4 mph - 0.06 in Rain Rain
11:38 AM 57.2 °F - 51.8 °F 82% 29.69 in 6.0 mi SSE 9.2 mph 19.6 mph 0.08 in Rain Light Rain
11:53 AM 57.9 °F - 52.0 °F 81% 29.67 in 5.0 mi SSE 11.5 mph 21.9 mph 0.10 in Rain Light Rain
12:03 PM 57.2 °F - 51.8 °F 82% 29.66 in 3.0 mi SSE 12.7 mph 20.7 mph 0.01 in Rain Light Rain
12:28 PM 57.2 °F - 51.8 °F 82% 29.67 in 3.0 mi SSW 8.1 mph 18.4 mph 0.03 in Rain Light Rain
12:53 PM 55.0 °F - 53.1 °F 93% 29.67 in 2.0 mi WSW 6.9 mph - 0.10 in Rain Rain
1:07 PM 55.4 °F - 53.6 °F 94% 29.67 in 1.8 mi WSW 5.8 mph - 0.04 in Rain Rain
1:53 PM 53.1 °F - 50.0 °F 89% 29.72 in 2.0 mi West 11.5 mph 23.0 mph 0.18 in Rain Rain
2:10 PM 53.6 °F - 48.2 °F 82% 29.73 in 3.0 mi WSW 6.9 mph - 0.03 in Rain Light Rain
2:53 PM 52.0 °F - 48.9 °F 89% 29.71 in 3.0 mi WSW 6.9 mph - 0.08 in Rain Light Rain
3:00 PM 51.8 °F - 48.2 °F 88% 29.70 in 6.0 mi WSW 5.8 mph - 0.01 in Rain Light Rain
3:53 PM 51.1 °F - 48.9 °F 92% 29.68 in 4.0 mi ESE 5.8 mph - 0.10 in Rain Rain
4:53 PM 52.0 °F - 48.9 °F 89% 29.67 in 10.0 mi SSE 9.2 mph - 0.07 in   Overcast
5:53 PM 51.1 °F - 48.9 °F 92% 29.69 in 10.0 mi Variable 4.6 mph - 0.00 in   Overcast
6:00 PM 51.8 °F - 48.2 °F 88% 29.68 in 10.0 mi SSE 6.9 mph - N/A   Overcast
6:53 PM 52.0 °F - 48.9 °F 89% 29.69 in 10.0 mi South 5.8 mph - N/A   Overcast
7:28 PM 51.8 °F - 48.2 °F 88% 29.69 in 10.0 mi SSE 5.8 mph - N/A   Mostly Cloudy
7:31 PM 51.8 °F - 48.2 °F 88% 29.69 in 10.0 mi SSE 6.9 mph - N/A   Mostly Cloudy
7:53 PM 51.1 °F - 48.0 °F 89% 29.70 in 10.0 mi SSE 6.9 mph - N/A   Overcast
8:30 PM 50.0 °F - 48.2 °F 94% 29.71 in 10.0 mi SSE 10.4 mph - N/A   Scattered Clouds
8:53 PM 50.0 °F - 46.9 °F 89% 29.70 in 10.0 mi SSE 6.9 mph - N/A   Partly Cloudy
9:53 PM 51.1 °F - 48.0 °F 89% 29.73 in 7.0 mi West 9.2 mph - 0.01 in Rain Light Rain
10:04 PM 50.0 °F - 46.4 °F 87% 29.73 in 8.0 mi West 5.8 mph - 0.01 in Rain Light Rain
10:11 PM 50.0 °F - 46.4 °F 87% 29.74 in 10.0 mi West 4.6 mph - 0.01 in Rain Light Rain
11:13 PM 48.2 °F - 44.6 °F 87% 29.74 in 10.0 mi West 6.9 mph - 0.01 in   Overcast
11:20 PM 48.2 °F - 44.6 °F 87% 29.74 in 10.0 mi West 5.8 mph - 0.01 in   Overcast
11:53 PM 46.9 °F - 42.1 °F 83% 29.74 in 10.0 mi West 8.1 mph - 0.01 in   Overcast
12:13 AM 46.4 °F 43.5 °F 42.8 °F 87% 29.74 in 10.0 mi WSW 5.8 mph - N/A   Overcast
12:53 AM 46.9 °F - 41.0 °F 80% 29.74 in 10.0 mi West 10.4 mph - N/A   Overcast